Back to catalog

THOR ABLESTAR DEB

AlivePO
NORAD 1099·DEBRIS·🇺🇸 United States

Launched Dec 13, 1964 from Vandenberg Space Force Base

Loading…

Next Passes (next 24 hours)

TLE

FreshSource: Space-Track

Epoch: Sep 14, 2026, 15:17 UTC

1 01099U 64083G   26257.63685419  .00000148  00000-0  17604-3 0  9998
2 01099  89.8035 136.2515 0040057  22.0551   6.1572 13.62867324994597

Track THOR ABLESTAR DEB in real time with AllMySat

Download on the App Store